SAS2671 NZNS-NZCH

Flight info

Callsign SAS2671
Flight time 0h 42m
Altitude 14000
Route NS Q787 ALADA Y894 IGEGA
Aircraft AT76/M-SDFGIRY/S

Departure

Time 2026-04-29 07:10
Airport Nelson Airport (NZNS)

Arrival

Time 2026-04-29 07:53
Airport Christchurch International Airport (NZCH)
Time Latitude Longitude Altitude Speed Heading
2026-04-29 07:04 -41.29939 173.22422 17 ft 0 kts 136°
2026-04-29 07:07 -41.29951 173.22413 17 ft 7 kts 223°
2026-04-29 07:07 -41.29972 173.22302 15 ft 13 kts 245°
2026-04-29 07:08 -41.30058 173.22192 15 ft 25 kts 219°
2026-04-29 07:08 -41.30172 173.22063 13 ft 13 kts 220°
2026-04-29 07:08 -41.30193 173.22023 12 ft 6 kts 245°
2026-04-29 07:08 -41.30168 173.21953 12 ft 15 kts 301°
2026-04-29 07:09 -41.30130 173.21899 11 ft 1 kts 354°
2026-04-29 07:09 -41.30128 173.21903 11 ft 0 kts 35°
2026-04-29 07:09 -41.30117 173.21915 11 ft 15 kts 39°
2026-04-29 07:10 -41.29902 173.22164 13 ft 68 kts 40°
2026-04-29 07:10 -41.29411 173.22732 18 ft 118 kts 41°
2026-04-29 07:10 -41.28711 173.23483 317 ft 132 kts 37°
2026-04-29 07:10 -41.27956 173.24211 790 ft 137 kts 35°
2026-04-29 07:11 -41.27098 173.24734 1346 ft 136 kts
2026-04-29 07:11 -41.26199 173.24431 1819 ft 141 kts 324°
2026-04-29 07:11 -41.25333 173.23536 1951 ft 170 kts 319°
2026-04-29 07:11 -41.24450 173.22487 2538 ft 168 kts 314°
2026-04-29 07:12 -41.23615 173.21378 3038 ft 173 kts 317°
2026-04-29 07:12 -41.22666 173.20378 3573 ft 176 kts 323°
2026-04-29 07:12 -41.21639 173.19434 4038 ft 181 kts 322°
2026-04-29 07:12 -41.20751 173.18286 4599 ft 179 kts 298°
2026-04-29 07:13 -41.20504 173.16675 5005 ft 184 kts 261°
2026-04-29 07:13 -41.21060 173.15186 5399 ft 183 kts 222°
2026-04-29 07:13 -41.22233 173.14612 5607 ft 183 kts 185°
2026-04-29 07:13 -41.23493 173.14544 5975 ft 178 kts 180°
2026-04-29 07:14 -41.24702 173.14601 6362 ft 174 kts 176°
2026-04-29 07:14 -41.25947 173.14600 6397 ft 185 kts 189°
2026-04-29 07:14 -41.27244 173.14272 6525 ft 193 kts 194°
2026-04-29 07:14 -41.28556 173.13788 6702 ft 198 kts 199°
2026-04-29 07:15 -41.29846 173.13132 6911 ft 200 kts 204°
2026-04-29 07:15 -41.31098 173.12317 7121 ft 201 kts 208°
2026-04-29 07:15 -41.32319 173.11408 7345 ft 202 kts 210°
2026-04-29 07:15 -41.33531 173.10467 7571 ft 202 kts 210°
2026-04-29 07:16 -41.34749 173.09538 7789 ft 202 kts 210°
2026-04-29 07:16 -41.35973 173.08615 8018 ft 202 kts 210°
2026-04-29 07:16 -41.37198 173.07694 8239 ft 202 kts 210°
2026-04-29 07:16 -41.38425 173.06775 8451 ft 203 kts 210°
2026-04-29 07:17 -41.39653 173.05857 8675 ft 203 kts 210°
2026-04-29 07:17 -41.40866 173.04947 8888 ft 203 kts 210°
2026-04-29 07:17 -41.42105 173.04016 9114 ft 207 kts 210°
2026-04-29 07:17 -41.43374 173.03062 9444 ft 211 kts 210°
2026-04-29 07:18 -41.44658 173.02099 9820 ft 213 kts 210°
2026-04-29 07:18 -41.45951 173.01127 10194 ft 214 kts 209°
2026-04-29 07:18 -41.47254 173.00148 10572 ft 215 kts 209°
2026-04-29 07:18 -41.48560 172.99164 10947 ft 216 kts 210°
2026-04-29 07:19 -41.49873 172.98175 11325 ft 217 kts 210°
2026-04-29 07:19 -41.51189 172.97184 11698 ft 217 kts 210°
2026-04-29 07:19 -41.52506 172.96192 12074 ft 218 kts 210°
2026-04-29 07:19 -41.53825 172.95198 12452 ft 218 kts 210°
2026-04-29 07:20 -41.55144 172.94202 12824 ft 218 kts 210°
2026-04-29 07:20 -41.56462 172.93209 13203 ft 218 kts 210°
2026-04-29 07:20 -41.57779 172.92214 13580 ft 218 kts 210°
2026-04-29 07:20 -41.59114 172.91205 13806 ft 225 kts 210°
2026-04-29 07:21 -41.60506 172.90152 13909 ft 235 kts 210°
2026-04-29 07:21 -41.61965 172.89048 13956 ft 246 kts 210°
2026-04-29 07:21 -41.63484 172.87899 13980 ft 256 kts 210°
2026-04-29 07:21 -41.65052 172.86712 13992 ft 261 kts 210°
2026-04-29 07:22 -41.66633 172.85517 13996 ft 261 kts 210°
2026-04-29 07:22 -41.68216 172.84322 13993 ft 261 kts 210°
2026-04-29 07:22 -41.69800 172.83124 13995 ft 261 kts 209°
2026-04-29 07:22 -41.71343 172.81855 13999 ft 261 kts 216°
2026-04-29 07:23 -41.72775 172.80372 13995 ft 260 kts 219°
2026-04-29 07:23 -41.74180 172.78858 13997 ft 259 kts 219°
2026-04-29 07:23 -41.75574 172.77387 14003 ft 258 kts 218°
2026-04-29 07:23 -41.77000 172.75938 13996 ft 257 kts 217°
2026-04-29 07:24 -41.78435 172.74513 13997 ft 257 kts 216°
2026-04-29 07:24 -41.79873 172.73101 13999 ft 256 kts 216°
2026-04-29 07:24 -41.81312 172.71699 13999 ft 255 kts 216°
2026-04-29 07:24 -41.82742 172.70284 14003 ft 255 kts 217°
2026-04-29 07:25 -41.84259 172.69090 13997 ft 253 kts 198°
2026-04-29 07:25 -41.85976 172.68643 13996 ft 252 kts 187°
2026-04-29 07:25 -41.87721 172.68406 14003 ft 252 kts 186°
2026-04-29 07:25 -41.89467 172.68173 14002 ft 253 kts 186°
2026-04-29 07:26 -41.91213 172.67884 13997 ft 253 kts 188°
2026-04-29 07:26 -41.92957 172.67548 14001 ft 253 kts 189°
2026-04-29 07:26 -41.94702 172.67202 13996 ft 253 kts 188°
2026-04-29 07:26 -41.96449 172.66861 14002 ft 254 kts 188°
2026-04-29 07:27 -41.98204 172.66518 14003 ft 256 kts 188°
2026-04-29 07:27 -41.99993 172.66174 14000 ft 263 kts 188°
2026-04-29 07:27 -42.01830 172.65819 13997 ft 270 kts 188°
2026-04-29 07:27 -42.03705 172.65459 13999 ft 274 kts 188°
2026-04-29 07:28 -42.05607 172.65090 14002 ft 278 kts 188°
2026-04-29 07:28 -42.07532 172.64719 14005 ft 281 kts 188°
2026-04-29 07:28 -42.09473 172.64343 14003 ft 283 kts 188°
2026-04-29 07:28 -42.11428 172.63966 13998 ft 285 kts 188°
2026-04-29 07:29 -42.13394 172.63583 14006 ft 286 kts 188°
2026-04-29 07:29 -42.15365 172.63201 13999 ft 287 kts 188°
2026-04-29 07:29 -42.17345 172.62821 14001 ft 288 kts 188°
2026-04-29 07:29 -42.19329 172.62435 13998 ft 288 kts 188°
2026-04-29 07:30 -42.21314 172.62047 14000 ft 289 kts 188°
2026-04-29 07:30 -42.23279 172.61669 14002 ft 289 kts 189°
2026-04-29 07:30 -42.25271 172.61283 13996 ft 289 kts 188°
2026-04-29 07:31 -42.29256 172.60505 14005 ft 290 kts 189°
2026-04-29 07:31 -42.31251 172.60121 13996 ft 290 kts 188°
2026-04-29 07:31 -42.33247 172.59728 14000 ft 290 kts 188°
2026-04-29 07:31 -42.35242 172.59338 14002 ft 290 kts 188°
2026-04-29 07:32 -42.37238 172.58953 14003 ft 290 kts 188°
2026-04-29 07:32 -42.39233 172.58563 14004 ft 290 kts 188°
2026-04-29 07:32 -42.41229 172.58171 14003 ft 290 kts 188°
2026-04-29 07:32 -42.43229 172.57781 13998 ft 290 kts 188°
2026-04-29 07:33 -42.45227 172.57392 14004 ft 290 kts 188°
2026-04-29 07:33 -42.47226 172.57002 13999 ft 290 kts 188°
2026-04-29 07:33 -42.49222 172.56609 13996 ft 290 kts 188°
2026-04-29 07:33 -42.51220 172.56217 13999 ft 290 kts 188°
2026-04-29 07:34 -42.53215 172.55825 14002 ft 290 kts 188°
2026-04-29 07:34 -42.55213 172.55433 14006 ft 290 kts 188°
2026-04-29 07:34 -42.57208 172.55041 14002 ft 290 kts 188°
2026-04-29 07:34 -42.59205 172.54649 14001 ft 290 kts 188°
2026-04-29 07:35 -42.61203 172.54256 13997 ft 290 kts 188°
2026-04-29 07:35 -42.63199 172.53864 13998 ft 290 kts 188°
2026-04-29 07:35 -42.65195 172.53471 13997 ft 290 kts 188°
2026-04-29 07:35 -42.67191 172.53078 13997 ft 290 kts 188°
2026-04-29 07:36 -42.69188 172.52683 14002 ft 290 kts 188°
2026-04-29 07:36 -42.71182 172.52290 14002 ft 290 kts 188°
2026-04-29 07:36 -42.73177 172.51895 14002 ft 290 kts 188°
2026-04-29 07:36 -42.75171 172.51501 14000 ft 290 kts 188°
2026-04-29 07:37 -42.77172 172.51104 14002 ft 290 kts 188°
2026-04-29 07:37 -42.79168 172.50710 14002 ft 290 kts 188°
2026-04-29 07:37 -42.81165 172.50319 13999 ft 290 kts 188°
2026-04-29 07:37 -42.83160 172.49926 14001 ft 290 kts 188°
2026-04-29 07:38 -42.85165 172.49703 14001 ft 289 kts 179°
2026-04-29 07:38 -42.87171 172.49889 13997 ft 289 kts 175°
2026-04-29 07:38 -42.89172 172.50161 14004 ft 289 kts 175°
2026-04-29 07:38 -42.91178 172.50397 13959 ft 291 kts 176°
2026-04-29 07:39 -42.93230 172.50563 13501 ft 297 kts 178°
2026-04-29 07:39 -42.95296 172.50702 13002 ft 297 kts 177°
2026-04-29 07:39 -42.97326 172.50865 12508 ft 296 kts 177°
2026-04-29 07:39 -42.99406 172.51025 11999 ft 295 kts 177°
2026-04-29 07:40 -43.01424 172.51190 11504 ft 294 kts 177°
2026-04-29 07:40 -43.03462 172.51349 11004 ft 293 kts 177°
2026-04-29 07:40 -43.05491 172.51512 10502 ft 291 kts 177°
2026-04-29 07:40 -43.07495 172.51705 10002 ft 285 kts 172°
2026-04-29 07:41 -43.09325 172.52644 9496 ft 281 kts 151°
2026-04-29 07:41 -43.10965 172.54083 8996 ft 279 kts 146°
2026-04-29 07:41 -43.12553 172.55596 8497 ft 277 kts 146°
2026-04-29 07:41 -43.14141 172.57066 7995 ft 274 kts 147°
2026-04-29 07:42 -43.15222 172.58017 7657 ft 273 kts 148°
2026-04-29 07:42 -43.17232 172.59735 7027 ft 271 kts 148°
2026-04-29 07:42 -43.18819 172.61104 6527 ft 269 kts 148°
2026-04-29 07:42 -43.20388 172.62463 6026 ft 259 kts 148°
2026-04-29 07:43 -43.21865 172.63748 5576 ft 249 kts 148°
2026-04-29 07:43 -43.23322 172.65008 5220 ft 247 kts 148°
2026-04-29 07:43 -43.24763 172.66262 4870 ft 245 kts 148°
2026-04-29 07:43 -43.26196 172.67508 4519 ft 243 kts 148°
2026-04-29 07:44 -43.27615 172.68742 4240 ft 239 kts 148°
2026-04-29 07:44 -43.28995 172.69941 4112 ft 232 kts 148°
2026-04-29 07:44 -43.30338 172.71110 4054 ft 226 kts 148°
2026-04-29 07:44 -43.31654 172.72261 4028 ft 223 kts 148°
2026-04-29 07:45 -43.32968 172.73387 4074 ft 221 kts 149°
2026-04-29 07:45 -43.34279 172.74479 4052 ft 220 kts 149°
2026-04-29 07:45 -43.35588 172.75548 4063 ft 218 kts 150°
2026-04-29 07:45 -43.36907 172.76608 4014 ft 223 kts 150°
2026-04-29 07:46 -43.38285 172.77565 4062 ft 218 kts 160°
2026-04-29 07:46 -43.39718 172.78005 4079 ft 210 kts 177°
2026-04-29 07:46 -43.41142 172.78019 3963 ft 204 kts 181°
2026-04-29 07:46 -43.42548 172.77952 3845 ft 200 kts 184°
2026-04-29 07:47 -43.43931 172.77809 3741 ft 199 kts 186°
2026-04-29 07:47 -43.45283 172.77555 3608 ft 187 kts 194°
2026-04-29 07:47 -43.46419 172.76869 3604 ft 169 kts 215°
2026-04-29 07:47 -43.47256 172.75824 3390 ft 160 kts 226°
2026-04-29 07:48 -43.47982 172.74699 3056 ft 154 kts 231°
2026-04-29 07:48 -43.48524 172.73545 2904 ft 130 kts 242°
2026-04-29 07:48 -43.48910 172.72477 2659 ft 119 kts 244°
2026-04-29 07:48 -43.49263 172.71468 2488 ft 121 kts 243°
2026-04-29 07:49 -43.49705 172.70438 2431 ft 125 kts 238°
2026-04-29 07:49 -43.50133 172.69410 2423 ft 124 kts 246°
2026-04-29 07:49 -43.50549 172.68330 2308 ft 128 kts 237°
2026-04-29 07:49 -43.51036 172.67343 2162 ft 122 kts 237°
2026-04-29 07:50 -43.51480 172.66357 1974 ft 122 kts 239°
2026-04-29 07:50 -43.51756 172.65671 1843 ft 126 kts 240°
2026-04-29 07:50 -43.52274 172.64223 1644 ft 127 kts 246°
2026-04-29 07:50 -43.52469 172.63474 1532 ft 123 kts 252°
2026-04-29 07:51 -43.52643 172.62352 1358 ft 117 kts 262°
2026-04-29 07:51 -43.52679 172.61203 1263 ft 122 kts 271°
2026-04-29 07:51 -43.52516 172.60054 1145 ft 124 kts 284°
2026-04-29 07:51 -43.52251 172.58935 1016 ft 121 kts 290°
2026-04-29 07:52 -43.51855 172.57933 889 ft 117 kts 307°
2026-04-29 07:52 -43.51311 172.57078 763 ft 121 kts 311°
2026-04-29 07:52 -43.50743 172.56210 538 ft 121 kts 309°
2026-04-29 07:52 -43.50206 172.55334 370 ft 119 kts 309°
2026-04-29 07:53 -43.49675 172.54478 201 ft 116 kts 308°
2026-04-29 07:53 -43.49187 172.53679 110 ft 74 kts 309°
2026-04-29 07:53 -43.49017 172.53432 109 ft 20 kts 345°
2026-04-29 07:53 -43.48930 172.53520 107 ft 17 kts 49°
2026-04-29 07:54 -43.48964 172.53630 105 ft 13 kts 129°
2026-04-29 07:54 -43.49017 172.53722 104 ft 12 kts 128°
2026-04-29 07:54 -43.49069 172.53855 106 ft 16 kts 79°
2026-04-29 07:54 -43.49017 172.53889 106 ft 4 kts 333°
2026-04-29 07:55 -43.49000 172.53895 105 ft 2 kts 69°
2026-04-29 07:55 -43.49005 172.53904 104 ft 0 kts 130°